Location: Groß Eilstorf
(52.8200°N, 9.4552°E)
Time: 04:41:29
(UTC+00:00)

NOSS 0 Rocket - Pass Details

Date: 15 May 2026
Orbit: 936 x 952 km, 70.0° (Epoch: 6 June)

Event Time Altitude Azimuth Distance (km) Brightness Sun altitude
Rises 21:33:24 0° 326° (NW) 3,620 8.8 -14.6°
Reaches altitude 10° 21:36:00 10° 331° (NNW) 2,669 7.7 -14.8°
Maximum altitude 21:42:05 56° 49° (NE) 1,106 4.4 -15.2°
Enters shadow 21:46:51 17° 124° (SE) 2,197 5.4 -15.4°
